Location: *
(46.1006°N, 1.8394°E)
Time: 23:27:50
(UTC+00:00)

Cosmos 1461 - Pass Details

Date: 20 September 2019
Orbit: 525 x 643 km, 65.0° (Epoch: 20 October)

Event Time Altitude Azimuth Distance (km) Brightness Sun altitude
Rises 18:18:30 0° 215° (SW) 2,687 6.7 -4.9°
Reaches altitude 10° 18:20:42 10° 215° (SW) 1,786 5.8 -5.3°
Maximum altitude 18:24:41 89° 307° (NW) 535 2.8 -6.0°
Drops below altitude 10° 18:28:39 10° 36° (NE) 1,774 5.1 -6.6°
Sets 18:30:50 0° 36° (NE) 2,667 6.0 -7.0°
